TimeCST,TemperatureF,Dew PointF,Humidity,Sea Level PressureIn,VisibilityMPH,Wind Direction,Wind SpeedMPH,Gust SpeedMPH,PrecipitationIn,Events,Conditions,WindDirDegrees,DateUTC
12:15 AM,60.1,60.1,100,30.06,10.0,SE,6.9,-,N/A,,Clear,130,2012-11-26 06:15:00
12:35 AM,61.0,60.8,99,30.06,10.0,SE,5.8,-,N/A,,Clear,130,2012-11-26 06:35:00
12:55 AM,61.3,61.0,99,30.05,10.0,SE,6.9,-,N/A,,Clear,130,2012-11-26 06:55:00
1:15 AM,61.7,61.0,97,30.05,10.0,SE,5.8,-,N/A,,Scattered Clouds,130,2012-11-26 07:15:00
1:35 AM,60.8,60.8,100,30.05,10.0,SE,3.5,-,N/A,,Scattered Clouds,130,2012-11-26 07:35:00
1:55 AM,60.8,60.8,100,30.04,10.0,ESE,3.5,-,N/A,,Clear,120,2012-11-26 07:55:00
2:15 AM,61.0,61.0,100,30.04,10.0,SE,3.5,-,N/A,,Scattered Clouds,130,2012-11-26 08:15:00
2:35 AM,62.1,62.1,100,30.03,10.0,SE,5.8,-,N/A,,Mostly Cloudy,130,2012-11-26 08:35:00
2:55 AM,63.5,63.5,100,30.03,10.0,SE,6.9,-,N/A,Rain,Light Rain,140,2012-11-26 08:55:00
3:15 AM,63.9,63.7,99,30.03,10.0,SSE,5.8,-,N/A,,Mostly Cloudy,150,2012-11-26 09:15:00
3:35 AM,64.2,64.0,99,30.03,10.0,SE,5.8,-,N/A,,Overcast,130,2012-11-26 09:35:00
3:55 AM,64.6,64.4,99,30.03,10.0,SE,5.8,-,N/A,,Overcast,130,2012-11-26 09:55:00
4:15 AM,64.8,64.4,99,30.02,10.0,SE,4.6,-,N/A,,Overcast,140,2012-11-26 10:15:00
4:35 AM,64.2,63.9,99,30.02,10.0,SE,4.6,-,N/A,,Overcast,130,2012-11-26 10:35:00
4:55 AM,64.4,64.4,100,30.03,10.0,SE,5.8,-,N/A,,Overcast,140,2012-11-26 10:55:00
5:15 AM,64.4,64.4,100,30.03,10.0,SE,6.9,-,N/A,,Overcast,140,2012-11-26 11:15:00
5:35 AM,64.6,64.6,100,30.03,10.0,SE,6.9,-,N/A,,Mostly Cloudy,130,2012-11-26 11:35:00
5:55 AM,65.3,65.3,100,30.04,10.0,SE,5.8,-,N/A,,Overcast,140,2012-11-26 11:55:00
6:15 AM,65.8,65.8,100,30.05,7.0,Calm,Calm,-,N/A,Rain,Rain,0,2012-11-26 12:15:00
6:35 AM,66.4,66.4,100,30.05,7.0,ESE,5.8,-,N/A,Rain,Light Rain,120,2012-11-26 12:35:00
6:55 AM,66.2,66.2,100,30.05,10.0,SE,4.6,-,N/A,,Overcast,130,2012-11-26 12:55:00
7:15 AM,66.6,66.6,100,30.06,10.0,SE,8.1,-,N/A,,Overcast,130,2012-11-26 13:15:00
7:35 AM,66.6,66.6,100,30.06,10.0,SE,9.2,-,N/A,,Overcast,140,2012-11-26 13:35:00
7:55 AM,66.7,66.7,100,30.07,10.0,SE,9.2,-,N/A,,Overcast,140,2012-11-26 13:55:00
8:15 AM,67.1,67.1,100,30.07,10.0,SE,8.1,-,N/A,,Overcast,140,2012-11-26 14:15:00
8:35 AM,67.6,67.6,100,30.08,10.0,SE,8.1,-,N/A,,Overcast,140,2012-11-26 14:35:00
8:55 AM,68.4,68.4,100,30.08,10.0,SE,9.2,-,N/A,,Overcast,140,2012-11-26 14:55:00
9:15 AM,68.9,68.5,99,30.09,10.0,SSE,11.5,-,N/A,,Overcast,150,2012-11-26 15:15:00
9:55 AM,69.8,68.7,96,30.10,10.0,SSE,15.0,21.9,0.01,,Overcast,150,2012-11-26 15:55:00
10:15 AM,69.4,68.4,96,30.09,10.0,SE,11.5,21.9,N/A,,Overcast,140,2012-11-26 16:15:00
10:35 AM,70.0,68.4,95,30.09,10.0,SE,10.4,18.4,N/A,,Overcast,140,2012-11-26 16:35:00
10:55 AM,71.2,68.2,90,30.09,10.0,SE,12.7,17.3,N/A,,Overcast,140,2012-11-26 16:55:00
11:15 AM,72.5,67.8,85,30.08,10.0,SSE,18.4,-,N/A,,Overcast,150,2012-11-26 17:15:00
11:35 AM,73.6,68.0,83,30.07,10.0,SSE,11.5,18.4,N/A,,Overcast,150,2012-11-26 17:35:00
11:55 AM,73.6,66.7,79,30.06,10.0,SE,13.8,18.4,N/A,,Overcast,140,2012-11-26 17:55:00
12:15 PM,72.5,66.4,81,30.06,10.0,SE,9.2,17.3,N/A,,Overcast,140,2012-11-26 18:15:00
12:35 PM,73.6,66.7,79,30.05,10.0,SE,10.4,-,N/A,,Overcast,140,2012-11-26 18:35:00
12:55 PM,70.7,67.6,90,30.05,10.0,SE,9.2,-,N/A,Rain,Rain,130,2012-11-26 18:55:00
1:15 PM,70.3,68.4,93,30.05,10.0,SE,11.5,17.3,N/A,,Overcast,140,2012-11-26 19:15:00
1:35 PM,71.4,68.9,92,30.04,10.0,SE,9.2,19.6,N/A,,Overcast,130,2012-11-26 19:35:00
1:55 PM,71.6,68.4,89,30.04,10.0,SE,13.8,19.6,N/A,,Overcast,140,2012-11-26 19:55:00
2:15 PM,71.1,68.7,92,30.03,10.0,SE,10.4,17.3,N/A,,Overcast,140,2012-11-26 20:15:00
2:35 PM,70.9,68.4,92,30.03,10.0,SSE,8.1,-,N/A,,Overcast,150,2012-11-26 20:35:00
2:55 PM,71.1,68.9,93,30.03,10.0,SSE,8.1,-,N/A,,Overcast,150,2012-11-26 20:55:00
3:15 PM,71.1,70.0,96,30.03,10.0,SE,9.2,-,N/A,,Overcast,140,2012-11-26 21:15:00
3:35 PM,71.1,69.3,94,30.03,10.0,SE,10.4,-,N/A,,Scattered Clouds,140,2012-11-26 21:35:00
3:55 PM,71.1,68.9,93,30.03,10.0,SSE,10.4,-,N/A,,Clear,150,2012-11-26 21:55:00
4:15 PM,69.8,68.4,95,30.03,10.0,SE,9.2,-,N/A,,Scattered Clouds,140,2012-11-26 22:15:00
4:35 PM,68.9,67.6,96,30.04,10.0,SE,8.1,-,N/A,,Scattered Clouds,140,2012-11-26 22:35:00
4:55 PM,68.0,67.1,97,30.04,10.0,SSE,9.2,-,N/A,,Clear,150,2012-11-26 22:55:00
5:15 PM,67.5,67.1,99,30.04,10.0,SE,8.1,-,N/A,,Scattered Clouds,140,2012-11-26 23:15:00
5:35 PM,67.5,67.1,99,30.05,10.0,SSE,6.9,-,N/A,,Scattered Clouds,150,2012-11-26 23:35:00
5:55 PM,67.5,67.1,99,30.06,10.0,SSE,8.1,-,N/A,,Mostly Cloudy,150,2012-11-26 23:55:00
6:15 PM,67.5,67.1,99,30.06,10.0,SSE,8.1,-,N/A,,Mostly Cloudy,150,2012-11-27 00:15:00
6:35 PM,67.1,67.1,100,30.06,10.0,SSE,8.1,-,N/A,,Mostly Cloudy,150,2012-11-27 00:35:00
6:55 PM,67.1,67.1,100,30.06,10.0,SSE,6.9,-,N/A,,Mostly Cloudy,150,2012-11-27 00:55:00
7:15 PM,67.1,67.1,100,30.06,10.0,SSE,5.8,-,N/A,,Scattered Clouds,150,2012-11-27 01:15:00
7:35 PM,66.9,66.9,100,30.08,10.0,SSE,10.4,-,N/A,,Scattered Clouds,150,2012-11-27 01:35:00
7:55 PM,66.7,66.7,100,30.08,10.0,SE,8.1,-,N/A,,Scattered Clouds,140,2012-11-27 01:55:00
8:15 PM,66.7,66.7,100,30.08,10.0,SE,8.1,-,N/A,,Mostly Cloudy,140,2012-11-27 02:15:00
8:35 PM,66.6,66.6,100,30.08,10.0,SE,6.9,-,N/A,,Scattered Clouds,140,2012-11-27 02:35:00
8:55 PM,66.2,66.2,100,30.08,10.0,SSE,5.8,-,N/A,,Clear,150,2012-11-27 02:55:00
9:15 PM,66.2,66.2,100,30.08,10.0,SSE,5.8,-,N/A,,Clear,150,2012-11-27 03:15:00
9:35 PM,66.2,66.2,100,30.08,10.0,SSE,6.9,-,N/A,,Clear,160,2012-11-27 03:35:00
9:55 PM,66.6,66.6,100,30.07,10.0,SSE,6.9,-,N/A,,Clear,150,2012-11-27 03:55:00
10:15 PM,66.6,66.6,100,30.07,10.0,SSE,6.9,-,N/A,,Clear,150,2012-11-27 04:15:00
10:35 PM,66.4,66.4,100,30.08,10.0,SSE,5.8,-,N/A,,Clear,150,2012-11-27 04:35:00
10:55 PM,66.6,66.6,100,30.08,10.0,SSE,6.9,-,N/A,,Clear,160,2012-11-27 04:55:00
11:15 PM,66.9,66.9,100,30.08,10.0,SSE,5.8,-,N/A,,Clear,160,2012-11-27 05:15:00
11:35 PM,67.1,67.1,100,30.08,10.0,SSE,6.9,-,N/A,,Clear,160,2012-11-27 05:35:00
11:55 PM,67.1,67.1,100,30.08,10.0,SSE,5.8,-,N/A,,Clear,160,2012-11-27 05:55:00